SCP
0 0 0 1 1 1 2 1 1 1 0 0 0 0 0 0 0 0 0 0 0 0 0 0 0 0 0 0 0 1 1 1 1 1 1 0 0 0
0 0 0 1 1 1 1 1 1 1 1 0 0 0 0 0 0 0 0 0 0 0 0 0 0 0 0 0 0 0 1 1 1 0 0 0 0 0
0 0 0 0 1 1 1 1 1 1 1 0 0 0 0 0 0 0 0 0 0 0 0 0 0 0 0 0 0 0 0 0 0 0 0 0 0 0
0 0 0 0 0 0 0 0 1 1 0 0 0 0 0 0 0 0 0 0 0 0 0 0 0 0 0 0 0 0 0 0 0 0 0 0 0 0
0 0 0 0 0 0 0 0 0 0 0 0 0 0 0 0 0 0 0 0 0 0 0 0 0 0 0 0 0 0 0 0 0 0 0 0 0 0
0 0 0 0 0 0 0 0 0 0 0 0 0 0 0 0 0 0 0 0 0 0 0 0 0 0 0 0 0 0 0 0 0 0 0 0 0 0
0 0 0 0 0 0 0 0 0 0 0 0 0 0 0 0 0 0 0 0 0 0 0 0 0 0 0 0 0 0 0 0 0 0 0 0 0 0
0 0 0 0 0 0 0 0 0 0 0 0 0 0 0 0 0 0 0 0 0 0 0 0 0 0 0 0 0 0 0 0 0 0 0 0 0 0
0 0 0 0 0 0 0 0 0 0 0 0 0 0 0 0 0 0 0 0 0 0 0 0 0 0 0 0 0 0 0 0 0 0 0 0 0 0
0 0 0 0 0 0 0 0 0 0 0 0 0 0 0 0 0 0 0 0 0 0 0 0 0 0 0 0 0 0 0 0 0 0 0 0 0 0
0 0 0 0 0 0 0 0 0 0 0 0 0 0 0 0 0 0 0 0 0 0 0 0 0 0 0 0 0 0 0 0 0 0 0 0 0 0
0 0 0 0 0 0 0 0 0 0 0 0 0 0 0 0 0 0 0 0 0 0 0 0 0 0 0 0 0 0 0 0 0 0 0 0 0 0
0 0 0 0 0 0 0 0 0 0 0 0 0 0 0 0 0 0 0 0 0 0 0 0 0 0 0 0 0 0 0 0 0 0 0 0 0 0
0 0 0 0 0 0 0 0 0 0 0 0 0 0 0 0 0 0 0 0 0 0 0 0 0 0 0 0 0 0 0 0 0 0 0 0 0 0
0 0 0 0 0 0 0 0 0 0 0 0 0 0 0 0 0 0 0 0 0 0 0 0 0 0 0 0 0 0 0 0 0 0 0 0 0 0
0 0 0 0 0 0 0 0 0 0 0 0 0 0 0 0 0 0 0 0 0 0 0 0 0 0 0 0 0 0 0 0 0 0 0 0 0 0
0 0 0 0 0 0 0 0 0 0 0 0 0 0 0 0 0 0 0 0 0 0 0 0 0 0 0 0 0 0 0 0 0 0 0 0 0 0
0 0 0 0 0 0 0 0 0 0 0 0 0 0 0 0 0 0 0 0 0 0 0 0 0 0 0 0 0 0 0 0 0 0 0 0 0 0
0 0 0 0 0 0 0 0 0 0 0 0 0 0 0 0 0 0 0 0 0 0 0 0 0 0 0 0 0 0 0 0 0 0 0 0 0 0
0 0 0 0 0 0 0 0 0 0 0 0 0 0 0 0 0 0 0 0 0 0 0 0 0 0 0 0 0 0 0 0 0 0 0 0 0 0
0 0 0 0 0 0 0 0 0 0 0 0 0 0 0 0 0 0 0 0 0 0 0 0 0 0 0 0 0 0 0 0 0 0 0 0 0 0
0 0 0 0 0 0 0 0 0 0 0 0 0 0 0 0 0 0 0 0 0 0 0 0 0 0 0 0 0 0 0 0 0 0 0 0 0 0
0 0 0 0 0 0 0 0 0 0 0 0 0 0 0 0 0 0 0 0 0 0 0 0 0 0 0 0 0 0 0 0 0 0 0 0 0 0
Wind_Speed
3 3 2 2 2 1 2 2 2 2 1 1 1 2 2 3 5 4 5 9 10 9 9 9 10 10 10 9 8 8 9 8 8 8 7 7 7 7
3 3 3 2 2 1 0 1 1 2 2 1 1 1 2 4 6 5 6 10 10 10 9 9 9 9 9 9 8 8 9 9 9 8 8 8 7 6
4 4 4 3 2 1 0 1 1 2 3 2 2 2 3 4 5 5 5 5 5 9 8 7 7 7 7 7 7 8 8 8 8 8 7 6 5 5
5 5 5 3 3 2 1 1 1 2 4 4 2 2 4 4 5 5 4 4 4 7 7 6 6 6 6 7 7 7 7 7 6 6 5 5 4 3
5 5 5 4 4 3 2 2 2 3 3 4 3 2 3 3 4 5 5 3 3 4 4 4 5 5 5 5 6 6 5 5 5 5 4 4 3 3
5 4 4 4 3 2 2 2 3 4 4 4 4 3 3 3 3 3 3 3 2 2 3 3 3 3 3 4 5 5 5 5 5 5 4 4 4 4
5 5 5 5 5 3 2 2 3 3 4 4 4 4 3 3 3 2 3 2 2 1 1 1 1 1 1 3 5 6 6 6 6 6 6 6 5 5
5 5 5 6 6 5 5 4 3 4 4 4 3 5 4 3 3 3 3 2 1 1 1 0 0 1 1 2 3 5 6 7 7 7 7 7 7 7
5 5 5 5 5 4 5 6 5 4 3 4 5 5 5 4 5 4 3 2 1 1 1 0 0 1 1 2 5 6 7 7 8 8 8 8 9 9
5 5 4 5 4 3 4 5 5 4 3 3 3 3 4 4 4 4 4 3 1 1 1 0 0 1 1 1 3 5 6 7 7 8 9 9 9 9
6 6 5 5 6 5 5 5 5 5 6 7 6 6 6 6 5 4 3 3 2 1 1 1 0 1 1 1 2 3 5 6 6 7 8 9 9 8
5 6 8 7 7 6 4 5 5 4 4 6 7 7 6 5 4 3 3 3 2 1 2 2 1 0 1 1 1 1 2 4 6 7 8 8 8 5
4 4 5 8 7 7 5 4 4 4 4 5 4 4 3 2 2 1 2 2 2 1 2 3 1 1 1 1 2 2 2 2 2 4 6 8 8 7
2 3 4 6 7 6 5 5 6 5 4 4 3 3 2 1 1 1 0 1 2 2 2 3 2 2 2 2 2 2 2 3 3 4 4 5 7 10
2 4 4 5 6 5 6 6 4 3 3 3 2 1 1 1 1 1 1 0 0 1 3 4 3 2 2 2 2 2 3 3 3 4 4 4 4 4
3 4 5 5 4 4 4 4 3 2 2 2 1 1 0 0 1 1 1 1 1 1 0 2 4 4 3 4 3 4 4 4 3 4 4 5 5 6
2 2 3 3 3 3 3 3 2 2 1 1 1 1 0 1 1 0 0 0 1 2 2 1 1 3 5 4 4 5 5 5 5 4 4 5 6 6
2 2 2 2 2 2 2 2 2 1 1 0 0 0 0 1 1 1 0 1 1 2 2 2 2 1 2 4 7 6 5 5 5 5 4 5 7 7
1 1 1 1 1 1 1 1 1 1 0 0 0 1 1 1 1 1 1 1 2 3 3 3 2 2 4 6 4 7 6 5 5 5 5 6 7 7
0 1 2 2 2 2 1 1 1 1 1 1 1 1 1 1 1 2 2 3 3 3 4 3 3 4 4 5 6 5 8 7 6 6 6 5 7 9
2 2 3 3 2 2 2 2 2 2 2 2 2 2 2 2 2 3 3 4 4 3 5 5 4 4 4 3 5 6 6 9 10 7 7 6 7 6
4 4 3 3 3 3 3 2 2 2 3 3 3 3 2 2 3 4 4 4 4 4 6 5 5 3 3 5 7 8 9 8 8 14 15 12 7 7
4 4 4 4 3 3 3 3 4 4 3 3 3 3 3 3 3 4 4 4 5 6 6 5 4 4 5 5 7 8 11 11 8 7 8 12 18 21
Wind_Direction
339 332 316 304 281 243 206 192 177 180 177 94 51 34 58 72 76 76 86 94 95 98 101 104 104 105 106 105 108 113 115 120 127 132 134 137 134 127
344 346 338 323 330 308 208 208 201 174 156 114 90 67 72 83 84 79 86 90 90 94 98 102 104 108 112 115 115 117 118 119 122 125 130 132 128 126
359 358 352 349 4 0 47 113 128 135 133 107 82 76 80 89 87 81 81 79 89 90 93 97 104 110 116 120 120 121 121 123 128 132 133 130 132 133
1 4 1 9 23 16 35 73 110 123 132 128 104 84 80 90 92 90 86 88 89 91 92 101 109 115 120 123 123 125 127 128 131 132 138 146 152 158
8 11 5 16 22 24 42 67 90 102 108 124 118 97 89 94 91 86 85 76 93 99 98 106 114 124 132 139 141 143 146 146 147 152 158 166 182 201
12 14 12 16 15 21 52 73 95 103 105 114 116 108 98 94 101 101 92 67 73 84 83 99 103 122 150 164 167 168 171 173 177 183 192 201 212 220
13 14 17 25 29 33 67 95 113 117 116 119 121 116 119 124 120 119 114 93 63 60 82 89 94 113 173 184 188 189 191 194 199 205 211 216 222 228
11 5 12 21 27 43 62 77 109 136 139 135 136 140 142 134 130 134 130 122 101 40 113 74 124 229 238 217 204 204 209 210 212 216 220 225 229 233
13 8 13 15 24 47 60 63 65 81 123 146 144 150 153 158 150 140 132 122 124 142 154 140 211 250 243 225 218 221 221 221 223 224 226 228 231 235
17 14 16 10 19 47 70 68 63 61 81 115 131 135 140 148 146 140 137 125 102 107 192 189 246 261 278 257 231 228 230 230 230 230 231 234 236 239
16 19 20 20 21 51 80 80 70 59 69 86 95 101 109 124 137 132 133 128 115 118 186 209 254 296 287 274 255 242 244 242 239 239 239 238 239 242
13 17 25 27 29 47 75 87 81 72 77 81 81 80 89 96 115 141 151 143 136 159 180 187 194 269 301 284 281 270 254 248 247 244 242 242 237 233
18 9 7 19 34 46 62 82 102 105 95 94 90 86 84 82 87 113 163 167 166 203 183 178 186 193 233 283 283 264 258 256 253 250 246 245 238 223
14 356 355 18 37 48 63 81 92 96 94 89 84 76 70 54 33 19 202 217 233 237 202 188 206 199 208 251 271 271 264 253 251 260 263 257 249 236
358 3 16 32 42 50 56 66 79 86 87 84 75 60 28 339 333 0 40 61 224 233 213 204 205 199 212 240 260 266 281 275 253 256 264 259 258 249
6 8 24 40 48 48 46 46 50 73 95 95 86 47 11 37 37 23 27 14 4 336 306 214 211 205 223 234 241 259 259 265 269 265 268 268 257 245
354 20 27 27 28 28 31 36 46 66 81 102 120 99 43 20 7 19 46 7 317 302 309 310 227 226 235 240 253 259 264 264 260 264 262 271 269 259
46 34 23 18 17 12 11 8 13 27 46 125 162 208 265 302 317 322 274 268 278 281 285 294 301 287 256 238 223 252 266 265 269 260 248 261 276 274
61 9 347 334 328 327 321 316 313 319 317 280 262 254 253 269 275 282 278 270 273 276 277 275 267 266 288 297 277 218 233 268 274 273 258 248 264 274
320 301 299 295 290 287 281 271 276 286 278 268 267 265 252 254 269 273 271 266 275 282 285 275 254 245 255 281 289 278 232 239 256 267 271 265 261 268
282 276 275 275 273 267 263 259 257 261 259 255 257 255 251 245 258 268 271 270 270 275 281 282 279 261 252 254 269 275 269 234 228 246 265 273 276 275
268 267 267 261 258 253 250 249 251 253 253 252 254 254 253 250 258 268 272 273 273 273 278 282 287 273 239 251 274 284 288 288 262 238 239 238 255 268
259 258 259 260 256 249 244 246 248 254 252 250 253 254 253 255 260 263 268 270 274 278 281 284 285 271 263 266 275 282 286 291 293 291 278 250 237 247